Location: Peterborough
(44.3091°N, 78.3197°W)
Time: 06:27:45
(UTC-04:00)

Vanguard 2 - Pass Details

Date: 26 March 2023
Orbit: 552 x 2926 km, 32.9° (Epoch: 04 June)

Event Time Altitude Azimuth Distance (km) Brightness Sun altitude
Rises 11:18:58 0° 272° (W) 6,214 11.8 40.3°
Reaches altitude 10° 11:24:05 10° 264° (W) 4,856 11.4 40.9°
Maximum altitude 11:34:45 32° 209° (SSW) 2,584 10.9 42.1°
Drops below altitude 10° 11:41:51 10° 150° (SSE) 3,182 11.8 42.8°
Sets 11:44:28 0° 139° (SE) 3,862 11.9 43.1°
